Lander, WY

2:15 PM MDT on May 26, 2017 (GMT -0600)
Hunt

Weather History for KLND - February, 2014

Change the Weather History Date:

Tuesday, February 11, 2014

  Actual Average Record
Temperature  
Mean Temperature 31 °F 24 °F  
Max Temperature 46 °F 35 °F 56 °F (1962)
Min Temperature 16 °F 13 °F -27 °F (1895)
Degree Days  
Heating Degree Days 34 41  
Month to date heating degree days 613 463  
Since 1 July heating degree days 5129 5053  
Cooling Degree Days 0 0  
Month to date cooling degree days 0 0  
Year to date cooling degree days 0 0  
Moisture  
Dew Point 15 °F    
Average Humidity 56    
Maximum Humidity 81    
Minimum Humidity 31    
Precipitation  
Precipitation 0.00 in 0.02 in 0.55 in (1900)
Month to date precipitation 0.07 0.19  
Year to date precipitation 0.68 0.60  
Snow  
Snow 0.00 in 0.40 in - ()
Month to date snowfall 1.4 3.7  
Since 1 July snowfall 52.9 47.0  
Snow Depth T in    
Sea Level Pressure  
Sea Level Pressure 30.04 in    
Wind  
Wind Speed 8 mph (West)    
Max Wind Speed 28 mph    
Max Gust Speed 34 mph    
Visibility 10 miles    
Events      
T = Trace of Precipitation, MM = Missing Value Source: NWS Daily Summary

Daily Weather History Graph

Daily Weather History Graph

Search for Another Location

Airport or City:

Trip Planner

Search our weather history database for the weather conditions in past years. The results will help you decide how hot, cold, wet, or windy it might be!

Date:

Astronomy

Feb. 11, 2014 Rise Set
Actual Time 7:17 AM MST 5:41 PM MST
Civil Twilight 6:48 AM MST 6:10 PM MST
Nautical Twilight 6:14 AM MST 6:44 PM MST
Astronomical Twilight 5:42 AM MST 7:16 PM MST
Moon 3:02 PM MST (2/11) 4:58 AM MST (2/11)
Length of Visible Light 11h 22m
Length of Day
10h 23m
Waxing Gibbous, 91% of the Moon is Illuminated
Feb 11
Waxing Gibbous
Feb 14
Full
Feb 22
Last Quarter
Mar 1
New
Mar 8
First Quarter

Hourly Weather History & Observations

Time (MST) Temp. Windchill Dew Point Humidity Pressure Visibility Wind Dir Wind Speed Gust Speed Precip Events Conditions
12:53 AM 21.9 °F 11.0 °F 9.0 °F 58% 30.13 in 10.0 mi West 10.4 mph - N/A   Clear
1:53 AM 19.9 °F 14.9 °F 10.9 °F 68% 30.12 in 10.0 mi South 3.5 mph - N/A   Clear
2:53 AM 19.9 °F 13.4 °F 12.0 °F 71% 30.08 in 10.0 mi ESE 4.6 mph - N/A   Clear
3:53 AM 16.0 °F 10.4 °F 10.0 °F 77% 30.09 in 10.0 mi NNE 3.5 mph - N/A   Clear
4:53 AM 18.0 °F 9.8 °F 10.0 °F 71% 30.08 in 10.0 mi West 5.8 mph - N/A   Clear
5:53 AM 18.0 °F 11.1 °F 10.9 °F 74% 30.09 in 10.0 mi WNW 4.6 mph - N/A   Clear
6:53 AM 19.9 °F 13.4 °F 12.0 °F 71% 30.09 in 10.0 mi SE 4.6 mph - N/A   Clear
7:53 AM 25.0 °F 16.3 °F 12.9 °F 60% 30.05 in 10.0 mi SE 8.1 mph - N/A   Clear
8:53 AM 21.0 °F 14.6 °F 12.9 °F 71% 30.08 in 10.0 mi NW 4.6 mph - N/A   Clear
9:53 AM 30.9 °F 27.5 °F 16.0 °F 54% 30.03 in 10.0 mi SSW 3.5 mph - N/A   Clear
10:53 AM 34.0 °F 29.8 °F 18.0 °F 52% 30.02 in 10.0 mi East 4.6 mph - N/A   Clear
11:53 AM 39.0 °F 34.8 °F 17.1 °F 41% 29.96 in 10.0 mi SE 5.8 mph - N/A   Clear
12:53 PM 43.0 °F 34.8 °F 16.0 °F 34% 29.89 in 10.0 mi West 18.4 mph 26.5 mph N/A   Clear
1:53 PM 43.0 °F 34.8 °F 15.1 °F 32% 29.87 in 10.0 mi West 18.4 mph 32.2 mph N/A   Clear
2:53 PM 44.1 °F 37.4 °F 15.1 °F 31% 29.88 in 10.0 mi WNW 13.8 mph 27.6 mph N/A   Clear
3:53 PM 42.1 °F 32.3 °F 16.0 °F 35% 29.92 in 10.0 mi West 24.2 mph - N/A   Clear
4:53 PM 39.9 °F 32.5 °F 19.0 °F 43% 29.96 in 10.0 mi NW 12.7 mph - N/A   Scattered Clouds
5:53 PM 37.0 °F 31.6 °F 17.1 °F 44% 30.00 in 10.0 mi West 6.9 mph - N/A   Partly Cloudy
6:53 PM 36.0 °F 30.3 °F 16.0 °F 44% 30.04 in 10.0 mi NW 6.9 mph - N/A   Partly Cloudy
7:53 PM 35.1 °F 29.3 °F 19.0 °F 52% 30.08 in 10.0 mi North 6.9 mph - N/A   Mostly Cloudy
8:53 PM 26.1 °F 17.6 °F 21.0 °F 81% 30.18 in 10.0 mi SE 8.1 mph - N/A   Partly Cloudy
9:53 PM 26.1 °F - 19.9 °F 78% 30.16 in 10.0 mi Calm Calm - N/A   Clear
10:53 PM 26.1 °F - 19.0 °F 75% 30.14 in 10.0 mi Calm Calm - N/A   Clear
11:53 PM 21.0 °F 14.6 °F 17.1 °F 85% 30.14 in 10.0 mi East 4.6 mph - N/A   Clear